Wind_Speed
9 13 8 14 8 8 6 7 6 7 8 10 16 9 2 4 6 9 8 2 19 20 21 18 18 17 20 19 15 17 17 11 6 5 1 7 11 8 10 12 11 6 10 11
12 9 5 3 5 6 6 8 9 8 3 8 14 10 8 3 8 11 10 10 16 14 13 15 16 16 18 16 16 16 15 5 3 0 1 4 13 11 11 18 11 9 7 10
8 11 2 7 3 9 5 6 10 14 15 17 13 14 14 11 10 11 14 11 18 12 10 9 12 14 15 15 15 14 7 4 3 7 8 9 12 15 14 13 7 8 8 13
6 5 6 8 4 10 7 11 13 15 15 14 18 12 13 14 13 13 15 12 14 13 9 10 13 13 16 15 9 5 3 8 8 7 6 7 12 15 14 14 14 9 12 15
11 6 5 2 10 9 14 13 15 19 20 15 13 7 13 9 17 16 15 17 14 16 15 14 15 14 13 12 11 7 6 5 6 7 9 11 13 13 13 12 13 14 19 14
8 1 4 9 7 5 11 16 20 23 18 12 13 4 4 10 3 16 15 13 12 12 12 15 14 15 17 16 12 11 10 12 9 7 6 8 11 13 15 16 17 17 13 13
4 10 6 4 12 13 17 16 11 7 9 9 5 5 12 13 13 18 16 11 10 10 10 9 10 11 12 10 9 7 7 5 6 9 10 12 12 13 15 14 14 12 14 8
5 2 5 8 10 12 20 10 8 12 13 14 18 7 1 15 15 20 16 13 11 9 6 6 4 6 7 3 6 11 12 14 13 12 13 12 11 12 12 7 9 13 12 13
8 5 2 4 8 9 10 11 14 10 19 13 7 15 12 16 10 12 14 13 11 9 8 7 8 11 9 9 9 10 11 13 15 13 11 11 9 10 11 11 10 14 11 13
4 11 8 4 7 10 5 7 9 6 10 10 12 8 7 11 11 15 12 13 12 9 7 7 8 12 12 12 15 15 14 15 15 13 10 11 11 9 9 10 10 11 12 13
7 7 12 14 2 10 12 8 8 8 8 9 11 7 10 10 13 14 14 12 11 10 8 13 16 13 12 12 15 18 17 17 13 13 12 13 11 10 10 12 13 14 15 14
7 6 10 17 6 4 8 4 6 7 11 11 11 5 11 12 14 14 13 10 11 13 10 11 10 8 12 17 17 17 14 14 13 12 13 13 9 11 13 13 14 14 14 15
8 5 9 11 6 4 5 12 10 9 8 14 12 3 8 9 11 12 11 13 8 8 8 8 7 14 16 15 17 15 13 13 13 15 13 9 11 12 13 14 13 12 12 14
2 7 12 12 15 14 11 12 11 8 9 14 10 8 12 14 14 12 9 5 7 4 6 7 12 17 18 16 11 13 13 15 16 16 19 11 13 11 12 11 12 13 14 15
2 11 14 16 17 15 16 12 10 11 16 11 12 14 11 12 10 6 7 9 5 9 11 11 13 15 11 10 11 11 13 15 17 17 14 14 16 14 15 10 13 12 13 13
8 11 14 17 17 17 12 10 9 10 10 14 9 6 9 12 8 7 6 6 14 10 11 12 13 12 12 9 15 18 17 15 15 16 19 20 17 14 12 11 12 11 13 14
10 11 12 16 17 13 9 7 6 9 11 11 9 6 11 9 7 4 11 13 10 11 13 11 7 9 13 16 15 14 15 16 18 18 20 19 23 18 13 13 12 13 13 14
9 9 10 10 11 10 6 8 9 6 6 5 10 8 8 9 13 13 11 10 12 13 8 7 12 17 15 16 15 14 15 15 16 16 16 15 15 13 14 14 14 14 17 14
4 9 6 3 6 2 3 5 5 5 4 5 9 9 12 14 8 11 9 12 9 6 9 14 15 14 12 14 21 18 14 18 16 14 14 16 14 15 14 14 16 16 15 13
6 6 5 7 5 3 3 3 1 8 2 8 10 11 13 13 8 11 12 10 6 9 13 11 11 14 14 15 17 17 17 19 16 13 13 12 14 15 15 16 14 15 12 11
1 4 5 3 4 5 3 7 5 4 4 7 9 11 10 9 7 9 7 4 8 11 11 13 14 14 16 16 17 15 16 17 15 13 14 15 15 14 15 15 12 15 12 10
5 4 3 4 3 2 7 2 6 3 3 7 9 9 8 7 7 5 5 10 12 12 13 14 16 16 16 15 15 17 17 17 15 14 14 14 14 13 12 11 15 14 12 10
1 5 5 4 4 3 6 8 5 5 8 8 8 7 6 6 6 5 10 8 12 11 14 18 18 16 14 16 18 19 21 20 16 16 17 16 13 12 13 14 14 15 11 11
3 3 4 3 2 4 6 6 7 8 8 7 6 6 5 6 5 10 6 10 10 15 16 17 17 18 19 19 17 17 18 18 16 16 14 13 12 13 16 15 15 14 14 13
3 6 5 6 5 5 5 7 7 7 6 7 8 6 6 6 8 4 10 10 13 15 13 14 16 16 16 16 17 16 16 15 15 13 13 13 14 14 14 18 17 14 16 17
3 7 4 2 6 6 6 7 5 5 6 5 6 6 5 8 5 7 10 11 11 15 14 17 15 14 14 14 13 14 15 14 12 12 12 14 10 9 12 11 15 19 19 18
Wind_Direction
218 240 12 35 2 347 353 318 305 28 52 298 303 298 271 349 10 15 358 39 61 71 67 74 88 102 114 116 126 118 107 101 113 109 217 268 304 309 318 321 291 315 306 322
230 75 53 8 335 305 299 300 20 308 205 275 284 282 218 107 55 46 26 46 88 84 87 91 102 106 116 131 134 130 125 74 71 292 285 309 308 306 303 287 281 287 294 314
5 73 101 279 204 317 202 354 348 320 314 289 291 263 153 135 92 79 76 47 92 85 93 111 124 133 125 133 132 118 93 29 348 299 297 299 293 287 270 270 273 301 297 302
42 72 284 256 92 330 324 14 325 309 306 304 314 297 192 149 134 97 80 67 64 86 107 112 127 117 98 62 65 51 336 347 343 322 324 318 299 298 297 297 294 291 304 298
81 31 334 302 24 330 348 321 293 292 286 280 304 227 140 179 79 87 75 61 62 62 62 59 60 61 62 57 54 35 10 317 303 307 293 294 295 291 287 306 310 307 299 292
75 8 13 5 297 246 293 309 311 277 257 250 121 301 309 128 111 101 87 74 69 67 68 65 59 59 55 55 47 37 37 24 339 327 324 307 302 308 303 306 306 299 310 301
262 173 119 310 329 346 351 313 316 325 335 316 104 287 54 66 64 100 99 87 73 73 73 80 89 86 72 39 18 1 351 337 326 338 325 315 308 307 300 302 305 325 303 332
343 118 340 17 350 335 299 339 295 332 313 310 280 350 307 77 63 90 94 95 89 91 113 116 150 180 143 85 17 4 355 344 338 335 326 315 313 310 305 343 331 303 308 308
328 307 146 75 337 315 342 313 339 286 261 266 324 100 57 46 99 96 106 108 104 111 105 115 85 52 27 3 4 350 345 338 335 334 320 317 321 312 312 307 305 302 301 304
14 301 314 334 290 199 279 316 342 321 319 308 311 357 40 16 22 120 113 107 117 133 119 82 62 24 359 355 355 351 341 338 328 326 331 317 307 300 296 296 299 297 299 295
342 302 306 309 1 346 316 315 1 311 279 318 306 14 49 20 23 78 95 95 96 77 52 28 12 359 345 341 342 341 336 331 343 341 333 311 316 310 313 315 310 311 304 295
51 305 297 307 32 292 289 302 352 323 315 320 290 308 52 30 44 66 81 88 80 45 17 4 343 324 336 357 341 329 355 344 329 314 298 296 321 329 317 317 317 316 314 313
12 321 313 311 164 356 299 329 318 326 311 282 296 79 14 82 58 57 92 74 43 358 350 344 316 4 346 341 349 346 331 329 331 321 307 336 325 320 322 325 330 336 331 331
343 293 289 293 315 318 304 307 308 324 290 292 312 359 8 32 51 65 63 27 355 331 307 8 353 341 343 6 343 337 343 333 329 329 339 342 304 314 325 338 328 334 335 337
275 298 305 296 305 298 285 289 314 314 305 310 347 29 19 24 68 33 356 351 11 17 19 2 345 359 355 345 348 321 335 348 336 340 332 325 315 316 328 324 326 340 344 350
314 288 292 293 280 272 293 311 313 295 338 341 4 55 324 46 35 358 350 336 30 16 346 356 359 358 335 331 350 352 355 344 331 332 331 334 315 321 330 323 335 349 351 350
294 291 294 287 296 299 297 358 312 34 27 25 12 336 28 26 346 343 13 11 20 342 5 11 346 312 356 354 338 347 336 340 339 350 339 333 339 350 356 349 356 358 349 347
296 291 287 291 296 286 89 40 16 8 29 39 260 351 19 359 350 54 36 3 5 15 6 326 355 2 344 341 339 342 351 344 333 335 343 344 352 8 13 360 352 350 353 3
284 293 307 286 311 81 84 51 30 19 91 251 7 352 4 360 304 81 23 29 25 356 2 4 2 324 335 342 346 358 344 343 348 345 346 359 7 4 359 356 358 4 359 7
246 233 276 307 286 336 60 93 325 305 98 347 360 5 2 333 335 36 22 40 3 9 13 346 329 337 355 345 343 345 354 345 360 357 5 13 8 5 358 355 6 357 356 356
348 307 296 289 274 83 41 12 310 350 35 25 7 17 8 4 19 15 19 23 23 21 341 347 336 19 19 3 352 356 0 359 358 357 21 15 6 359 6 4 17 11 15 18
329 315 321 341 318 343 343 337 5 56 81 14 29 17 13 28 38 40 38 32 16 10 6 343 8 8 2 12 6 356 359 355 2 9 3 11 19 10 11 20 24 23 27 31
331 21 329 19 16 71 47 70 70 44 47 39 27 26 32 54 71 45 42 31 21 11 3 16 14 22 10 2 8 8 12 6 4 17 38 27 23 27 27 22 21 28 29 32
61 37 285 271 107 109 99 87 77 69 67 47 51 49 59 81 70 50 34 38 10 25 29 22 12 23 21 21 24 23 17 23 29 29 30 29 38 26 24 37 43 45 32 25
102 232 311 72 54 114 127 96 99 88 74 70 54 62 91 75 67 39 50 16 35 54 40 40 35 24 19 16 14 14 16 16 19 30 37 38 37 51 52 52 49 52 50 49
24 26 27 16 23 17 127 115 123 88 63 58 95 102 86 73 53 44 47 37 22 63 43 46 36 26 14 10 9 9 15 23 31 40 38 46 54 46 49 69 65 62 56 51
Height
757 765 772 768 767 764 765 769 773 761 761 773 766 770 761 761 762 764 764 758 778 788 799 804 809 812 819 823 827 827 829 832 836 836 837 838 839 834 838 835 836 830 834 833
764 778 770 767 768 769 769 773 772 764 760 768 765 765 752 763 769 772 768 766 784 800 809 815 818 820 823 826 829 831 832 834 835 835 835 834 838 836 835 837 831 830 831 831
773 773 770 772 772 777 768 783 785 785 768 757 753 765 757 765 767 773 775 780 787 802 815 819 823 826 828 831 833 835 836 836 836 835 832 833 835 835 833 832 829 828 829 830
771 767 775 774 779 779 784 774 779 780 782 788 757 789 755 762 772 776 779 787 792 808 819 822 826 830 833 835 836 838 838 835 834 835 834 833 834 834 831 829 828 828 826 826
782 778 777 781 784 780 785 775 777 772 772 769 757 775 770 758 790 777 793 810 821 827 830 834 835 837 839 839 840 839 839 838 838 834 833 833 834 833 830 828 826 825 823 821
776 770 775 780 777 776 774 777 774 760 754 779 767 776 769 787 778 799 814 824 833 837 841 842 842 841 841 841 842 842 839 838 840 839 836 835 832 832 831 827 825 822 820 819
776 776 772 777 785 773 778 788 804 796 789 786 763 779 778 776 779 790 814 833 839 844 845 848 847 846 846 845 843 841 841 841 841 836 835 834 832 830 827 824 822 822 819 817
794 807 789 780 791 799 793 794 807 830 817 797 760 786 820 796 813 807 825 838 844 847 849 849 849 847 846 846 845 844 843 842 838 834 833 832 829 827 825 824 823 822 819 817
803 800 776 785 787 791 798 799 785 808 786 788 770 785 791 803 830 820 828 839 842 846 847 847 847 847 848 847 845 845 842 839 837 835 832 831 829 827 825 824 822 820 818 815
795 818 785 784 785 782 793 789 807 795 826 823 787 786 808 799 799 811 821 829 837 841 844 846 847 848 848 845 843 842 840 838 836 834 832 831 827 825 823 821 820 817 816 814
795 805 803 787 790 803 799 795 802 806 807 818 816 805 805 808 802 804 824 829 835 842 846 848 849 850 848 845 841 841 839 838 835 834 832 830 826 823 821 819 817 815 813 811
804 815 820 805 784 790 796 801 806 825 827 813 815 814 808 811 808 810 827 836 843 851 852 851 851 849 843 843 843 841 840 840 837 834 832 828 823 823 820 818 816 814 812 810
809 815 829 813 799 806 808 800 798 804 813 820 817 829 830 815 819 822 833 844 850 851 850 851 848 845 845 843 842 843 842 840 837 833 828 825 824 822 820 818 816 813 811 808
818 820 824 827 811 801 809 805 799 810 825 812 808 813 821 818 822 834 841 843 849 851 849 846 847 846 845 847 846 844 842 839 834 831 827 823 824 821 818 817 815 811 809 807
817 832 820 810 801 801 799 801 801 814 811 818 813 830 828 826 834 837 840 842 845 847 850 851 849 849 850 849 846 842 839 837 834 831 829 827 822 819 817 816 814 812 810 808
813 829 821 821 803 798 800 802 811 810 814 818 830 840 838 831 838 841 842 836 843 854 853 850 854 853 850 846 843 843 841 839 836 831 827 824 820 817 816 815 814 812 810 808
824 824 828 828 807 803 819 822 820 821 832 851 849 845 831 837 837 836 838 841 847 850 851 856 856 849 847 846 845 845 841 838 836 832 830 824 821 818 817 816 814 812 810 808
827 826 820 824 813 840 825 815 821 832 842 848 849 834 832 833 831 836 846 850 851 855 859 855 849 851 851 849 846 843 840 838 834 831 828 826 823 821 820 818 815 813 811 809
822 825 828 838 838 827 828 828 831 839 848 839 835 833 832 834 832 848 852 855 860 859 856 855 857 854 851 847 845 841 839 835 834 831 828 826 825 823 820 818 816 814 812 811
819 821 833 836 846 849 843 829 827 825 860 843 838 839 841 841 838 841 855 862 860 858 859 858 856 853 850 847 846 842 840 837 834 832 829 829 827 825 823 820 818 816 814 812
830 827 835 841 842 844 832 827 827 856 863 843 845 846 848 850 855 858 860 861 860 862 861 859 853 852 851 849 846 842 841 839 836 834 832 830 829 827 825 823 821 818 816 813
832 837 844 835 841 862 833 832 843 848 845 847 847 853 854 855 859 862 861 861 864 863 861 857 854 853 851 850 847 844 843 841 838 836 833 832 831 829 827 825 823 820 818 816
840 837 840 838 846 839 838 842 845 844 847 852 854 857 857 861 863 863 865 865 866 864 862 860 858 857 854 852 849 847 846 843 840 837 836 836 834 832 830 827 825 823 822 819
828 827 830 832 840 841 844 846 848 850 854 857 859 860 861 863 863 868 868 868 865 865 864 864 860 858 858 856 854 853 849 846 844 842 841 839 837 835 833 831 829 827 825 823
827 828 827 835 839 841 844 848 853 856 858 860 863 864 865 865 868 870 870 868 867 868 868 867 867 865 863 860 858 856 853 851 848 846 845 842 841 840 838 836 834 833 831 828
825 833 840 847 837 838 848 852 856 858 861 862 864 868 868 870 871 869 872 870 870 871 870 871 870 868 866 863 861 858 856 853 852 850 848 847 845 844 842 841 839 837 836 834